Flag for Norfolk Island

Past Weather in Kingston, Norfolk Island — Yesterday and Last 2 Weeks

Now
68 °F

Sunny.


Feels Like: 68 °F
Forecast: 69 / 60 °F
Wind: 10 mph from Northwest

Location: Norfolk Island Airport
Current Time: Sep 24, 2020 at 10:01:14 am
Latest Report: Sep 24, 2020 at 9:30 am
Visibility: N/A
Pressure30.07 "Hg
Humidity: 73%
Dew Point: 59 °F
Location of KingstonLocation

Past Weather in Kingston — Graph

°F

Kingston Temperature Yesterday

Maximum temperature yesterday: 70 °F (at 2:00 pm)
Minimum temperature yesterday: 55 °F (at 12:00 am)
Average temperature yesterday: 62 °F

High & Low Weather Summary for the Past Weeks

 TemperatureHumidityPressure
High70 °F (Sep 23, 2:00 pm)94% (Sep 11, 1:00 pm)30.42 "Hg (Sep 11, 1:00 pm)
Low55 °F (Sep 15, 11:00 pm)48% (Sep 12, 4:00 pm)30.01 "Hg (Sep 10, 1:30 pm)
Average61 °F73%30.25 "Hg
* Reported Sep 9 8:00 am — Sep 24 8:30 am, Kingston. Weather by CustomWeather, © 2020

Note: Actual official high and low records may vary slightly from our data, if they occured in-between our weather recording intervals... More about our weather records

Kingston Weather History for the Previous 24 Hours

Scroll right to see more
 ConditionsComfort  
Time TempWeatherWind HumidityBarometerVisibility
8:30 am
Thu, Sep 24
66 °FScattered clouds.8 mph73%30.04 "HgN/A
8:00 am66 °FSunny.9 mph73%30.07 "HgN/A
7:30 am64 °FSunny.7 mph78%30.07 "HgN/A
7:00 am64 °FSunny.8 mph78%30.07 "HgN/A
6:30 am63 °FSunny.7 mph77%30.07 "HgN/A
6:00 am63 °FSunny.6 mph77%30.04 "HgN/A
5:00 am61 °FClear.6 mph77%30.04 "HgN/A
4:30 am61 °FClear.6 mph83%30.04 "HgN/A
4:00 am61 °FPassing clouds.6 mph77%30.04 "HgN/A
3:30 am61 °FClear.6 mph77%30.04 "HgN/A
3:00 am61 °FClear.6 mph83%30.01 "HgN/A
2:30 am61 °FClear.6 mph77%30.01 "HgN/A
2:00 am61 °FClear.5 mph77%30.01 "HgN/A
1:30 am61 °FClear.5 mph77%30.04 "HgN/A
1:00 am61 °FClear.5 mph77%30.04 "HgN/A
12:30 am61 °FClear.6 mph77%30.04 "HgN/A
12:00 am61 °FClear.7 mph77%30.04 "HgN/A
11:00 pm
Wed, Sep 23
61 °FClear.5 mph77%30.07 "HgN/A
10:30 pm61 °FClear.2 mph77%30.07 "HgN/A
10:00 pm61 °FClear.3 mph77%30.07 "HgN/A
9:30 pm61 °FPassing clouds.6 mph77%30.07 "HgN/A
9:00 pm61 °FClear.5 mph77%30.09 "HgN/A
8:30 pm61 °FClear.5 mph77%30.09 "HgN/A
8:00 pm61 °FClear.5 mph77%30.09 "HgN/A
7:30 pm61 °FClear.5 mph77%30.07 "HgN/A
7:00 pm61 °FClear.2 mph77%30.07 "HgN/A
6:30 pm61 °FClear.5 mph77%30.07 "HgN/A
6:00 pm63 °FClear.3 mph73%30.07 "HgN/A
5:30 pm64 °FSunny.6 mph68%30.07 "HgN/A
5:00 pm66 °FScattered clouds.6 mph64%30.04 "HgN/A
4:30 pm66 °FScattered clouds.7 mph64%30.04 "HgN/A
4:00 pm66 °FSunny.7 mph60%30.04 "HgN/A
3:30 pm68 °FSunny.8 mph56%30.04 "HgN/A
3:00 pm68 °FSunny.10 mph60%30.04 "HgN/A
2:00 pm70 °FScattered clouds.9 mph60%30.07 "HgN/A
1:30 pm68 °FPartly sunny.7 mph64%30.07 "HgN/A
1:00 pm68 °FPartly sunny.10 mph64%30.07 "HgN/A
12:30 pm68 °FScattered clouds.8 mph60%30.09 "HgN/A
11:00 am66 °FBroken clouds.8 mph64%30.09 "HgN/A
10:00 am68 °FPartly sunny.6 mph64%30.12 "HgN/A
Weather by CustomWeather, © 2020

See weather overview